GW1596 Weather Reports


time (UTC)temp
F
wind
direction
speed
knots
gust
knots
rain 1hr
in
rain 24hr
in
rain mn
in
humidity
%
barometer
mb
20260906123924 68 89 1.7 2.6 0.00 0.00 0.00 93 1018.2
20260906123452 68 117 0.0 1.7 0.00 0.00 0.00 93 1017.9
20260906123021 68 30 2.6 3.5 0.00 0.00 0.00 93 1017.9
20260906122604 68 44 3.5 3.5 0.00 0.00 0.00 93 1017.6
20260906122149 68 69 3.5 3.5 0.00 0.00 0.00 93 1017.9
20260906121715 68 71 3.5 3.5 0.00 0.00 0.00 93 1017.9
20260906121241 68 66 2.6 3.5 0.00 0.00 0.00 93 1017.9
20260906115853 68 53 1.7 2.6 0.00 0.00 0.00 94 1017.9
20260906115421 68 37 1.7 1.7 0.00 0.00 0.00 93 1017.6
20260906114948 68 49 0.9 2.6 0.00 0.00 0.00 94 1017.6
20260906114532 68 36 2.6 5.2 0.00 0.00 0.00 93 1017.6
20260906114117 68 46 1.7 2.6 0.00 0.00 0.00 94 1017.6
20260906113615 68 74 1.7 1.7 0.00 0.00 0.00 94 1017.2
20260906112655 68 61 0.9 1.7 0.00 0.00 0.00 94 1017.2
20260906111739 68 95 0.9 0.9 0.00 0.00 0.00 94 1017.2
20260906111323 68 62 0.0 0.9 0.00 0.00 0.00 94 1016.9
20260906110906 68 61 1.7 1.7 0.00 0.00 0.00 94 1016.9
20260906110435 68 75 1.7 2.6 0.00 0.00 0.00 94 1016.9
20260906110021 68 340 1.7 2.6 0.00 0.00 0.00 94 1016.5
20260906105120 68 79 1.7 2.6 0.00 0.00 0.00 95 1016.9
20260906104650 68 68 2.6 2.6 0.00 0.00 0.00 95 1016.5
20260906104232 68 45 3.5 5.2 0.00 0.00 0.00 95 1016.9
20260906103815 69 58 2.6 2.6 0.00 0.00 0.00 95 1016.5
20260906103359 69 58 2.6 2.6 0.00 0.00 0.00 95 1016.5
20260906102442 69 62 1.7 1.7 0.00 0.00 0.00 96 1016.5
20260906102010 69 62 1.7 1.7 0.00 0.00 0.00 96 1016.5
20260906101125 69 59 2.6 2.6 0.00 0.00 0.00 98 1016.2
20260906100223 69 86 0.9 1.7 0.00 0.00 0.00 99 1016.2
20260906095751 69 86 0.9 1.7 0.00 0.00 0.00 99 1016.5
20260906095321 69 74 0.9 0.9 0.00 0.00 0.00 99 1016.5
20260906094903 69 76 1.7 2.6 0.00 0.00 0.00 99 1016.2
20260906093946 69 74 0.0 0.0 0.00 0.00 0.00 99 1016.2
20260906093529 69 87 0.9 0.9 0.00 0.00 0.00 99 1016.2
20260906093114 69 91 0.0 0.0 0.00 0.00 0.00 99 1016.2
20260906092656 69 90 0.0 0.0 0.00 0.00 0.00 99 1016.2
20260906091340 69 94 0.0 0.0 0.00 0.00 0.00 99 1016.2
20260906090908 69 94 0.0 0.0 0.00 0.00 0.00 99 1016.5
20260906090002 69 94 0.0 0.0 0.00 0.00 0.00 99 1015.9
20260906085530 69 94 0.0 0.0 0.00 0.00 0.00 99 1016.2
20260906085113 69 94 0.0 0.0 0.00 0.00 0.00 99 1016.2
20260906084642 69 94 0.0 0.0 0.00 0.00 0.00 99 1016.2
20260906084212 69 94 0.0 0.0 0.00 0.00 0.00 99 1016.2
20260906083739 69 94 0.0 0.0 0.00 0.00 0.00 99 1016.2
20260906083323 69 94 0.0 0.0 0.00 0.00 0.00 99 1016.2
20260906082904 69 94 0.0 0.0 0.00 0.00 0.00 99 1016.2
20260906082433 69 94 0.0 0.0 0.00 0.00 0.00 99 1016.2
20260906082002 69 94 0.0 0.0 0.00 0.00 0.00 99 1016.2
20260906081515 69 94 0.0 0.0 0.00 0.00 0.00 99 1016.2
20260906081044 69 94 0.0 0.0 0.00 0.00 0.00 99 1016.5
20260906080614 69 94 0.0 0.0 0.00 0.00 0.00 99 1016.2
20260906080144 69 94 0.0 0.0 0.00 0.00 0.00 99 1016.2
20260906075726 69 94 0.0 0.0 0.00 0.00 0.00 99 1015.9
20260906074837 69 94 0.0 0.0 0.00 0.00 0.00 99 1016.2
20260906074422 69 94 0.0 0.0 0.00 0.00 0.00 99 1015.9
20260906074004 69 94 0.0 0.0 0.00 0.00 0.00 99 1015.9
20260906073533 70 94 0.0 0.0 0.00 0.00 0.00 99 1015.9
20260906073116 70 94 0.0 0.0 0.00 0.00 0.00 99 1015.9
20260906072227 70 94 0.0 0.0 0.00 0.00 0.00 99 1015.9
20260906071756 70 94 0.0 0.0 0.00 0.00 0.00 99 1015.9
20260906071340 70 94 0.0 0.0 0.00 0.00 0.00 99 1016.2
20260906070422 70 94 0.0 0.0 0.00 0.00 0.00 99 1016.2
20260906065518 70 94 0.0 0.0 0.00 0.00 0.00 99 1016.2
20260906064630 70 94 0.0 0.0 0.00 0.00 0.00 99 1016.2
20260906063725 69 94 0.0 0.0 0.00 0.00 0.00 99 1016.5
20260906063307 69 94 0.0 0.0 0.00 0.00 0.00 99 1016.2
20260906062851 69 94 0.0 0.0 0.00 0.00 0.00 99 1016.5
20260906062436 69 94 0.0 0.0 0.00 0.00 0.00 99 1016.5
20260906062002 69 94 0.0 0.0 0.00 0.00 0.00 99 1016.5
20260906061531 69 94 0.0 0.0 0.00 0.00 0.00 99 1016.5
20260906061114 70 94 0.0 0.0 0.00 0.00 0.00 99 1016.5
20260906060657 70 94 0.0 0.0 0.00 0.00 0.00 99 1016.5
20260906060242 70 94 0.0 0.0 0.00 0.00 0.00 99 1016.5
20260906055825 70 94 0.0 0.0 0.00 0.00 0.00 99 1016.2
20260906055410 70 94 0.0 0.0 0.00 0.00 0.00 99 1016.5
20260906054954 70 94 0.0 0.0 0.00 0.00 0.00 99 1016.2
20260906054053 70 94 0.0 0.0 0.00 0.00 0.00 99 1015.9
20260906053639 70 94 0.0 0.0 0.00 0.00 0.00 99 1016.2
20260906053208 70 94 0.0 0.0 0.00 0.00 0.00 99 1016.2
20260906052737 70 94 0.0 0.0 0.00 0.00 0.00 99 1016.2
20260906052306 69 94 0.0 0.0 0.00 0.00 0.00 99 1015.9
20260906051834 69 94 0.0 0.0 0.00 0.00 0.00 99 1015.9
20260906050918 69 94 0.0 0.0 0.00 0.00 0.00 99 1015.9
20260906050503 69 94 0.0 0.0 0.00 0.00 0.00 99 1016.2
20260906050033 70 94 0.0 0.0 0.00 0.00 0.00 99 1016.2
20260906045616 69 94 0.0 0.0 0.00 0.00 0.00 99 1016.2
20260906045159 69 94 0.0 0.0 0.00 0.00 0.00 99 1016.2
20260906044743 70 94 0.0 0.0 0.00 0.00 0.00 99 1016.2
20260906044313 70 94 0.0 0.0 0.00 0.00 0.00 99 1015.9
20260906043840 70 94 0.0 0.0 0.00 0.00 0.00 99 1015.9
20260906043410 70 94 0.0 0.0 0.00 0.00 0.00 99 1016.2
20260906042509 70 94 0.0 0.0 0.00 0.00 0.00 99 1016.2
20260906042054 70 94 0.0 0.0 0.00 0.00 0.00 99 1015.9
20260906041622 70 94 0.9 1.7 0.00 0.00 0.00 99 1015.9
20260906041136 70 79 1.7 1.7 0.00 0.00 0.00 99 1015.9
20260906040719 70 79 1.7 0.9 0.00 0.00 0.00 99 1016.2
20260906040302 70 79 0.9 0.9 0.00 0.00 0.00 99 1015.9
20260906035832 70 72 1.7 1.7 0.00 0.00 0.37 99 1016.2
20260906035415 70 98 0.0 0.9 0.00 0.00 0.37 98 1015.9
20260906034958 70 98 0.0 0.9 0.00 0.00 0.37 98 1015.9
20260906034545 70 98 0.0 0.0 0.00 0.00 0.37 98 1015.9
20260906033610 70 98 0.0 0.0 0.00 0.00 0.37 98 1016.2
20260906033156 70 98 0.0 0.0 0.00 0.00 0.37 98 1016.2
20260906032721 71 98 0.0 0.0 0.00 0.00 0.37 98 1016.5
20260906032250 71 98 0.0 0.0 0.00 0.00 0.37 98 1016.2
20260906031348 71 98 0.0 0.0 0.00 0.00 0.37 98 1016.2
20260906030444 71 98 0.0 0.0 0.00 0.00 0.37 97 1016.2
20260906030027 71 98 0.0 0.0 0.00 0.00 0.37 97 1016.2
20260906025556 71 98 0.0 0.0 0.00 0.00 0.37 97 1016.5
20260906025123 71 98 0.0 0.0 0.00 0.00 0.37 97 1016.5
20260906024650 71 98 0.0 0.0 0.00 0.00 0.37 97 1016.2
20260906024219 72 98 0.9 0.9 0.00 0.00 0.37 97 1016.2
20260906023746 72 98 0.9 0.9 0.00 0.00 0.37 97 1016.5
20260906022844 72 98 0.0 0.0 0.00 0.00 0.37 96 1016.5
20260906022412 72 98 0.9 0.9 0.00 0.00 0.37 95 1016.5
20260906021956 72 98 0.0 0.0 0.00 0.00 0.37 95 1016.5
20260906021526 72 98 0.9 0.9 0.00 0.00 0.37 95 1016.2
20260906021109 73 97 1.7 0.9 0.00 0.00 0.37 93 1016.2
20260906020621 73 97 1.7 1.7 0.00 0.00 0.37 93 1016.5
20260906020150 73 98 0.0 0.0 0.00 0.00 0.37 93 1016.2
20260906015305 73 92 1.7 2.6 0.00 0.00 0.37 94 1016.2
20260906014829 73 91 2.6 1.7 0.00 0.00 0.37 94 1015.9
20260906013941 73 108 1.7 1.7 0.00 0.00 0.37 95 1016.2
20260906013524 73 108 1.7 1.7 0.00 0.00 0.37 95 1015.9
20260906013051 72 72 1.7 1.7 0.00 0.00 0.37 97 1015.5
20260906011731 72 83 0.9 1.7 0.00 0.00 0.37 97 1015.9
20260906011245 72 93 1.7 1.7 0.00 0.00 0.37 98 1015.5
20260906010341 72 62 3.5 3.5 0.00 0.00 0.37 98 1015.5
20260906005925 72 197 0.0 0.0 0.00 0.00 0.37 98 1015.5
20260906005508 74 198 0.0 0.0 0.00 0.00 0.37 93 1015.2
20260906005036 74 198 0.0 0.0 0.00 0.00 0.37 93 1015.2
20260906004132 74 198 0.0 0.0 0.00 0.00 0.37 93 1014.9
20260906003714 74 198 0.0 0.0 0.00 0.00 0.37 93 1015.2
20260906003258 74 198 0.0 0.0 0.00 0.00 0.37 93 1015.2
20260906002811 74 198 0.0 0.0 0.00 0.00 0.37 93 1015.2
20260906002354 74 198 0.0 0.0 0.00 0.00 0.37 93 1015.2
20260906001937 74 198 0.0 0.0 0.00 0.00 0.37 93 1015.2
20260906001521 74 198 0.0 0.0 0.00 0.00 0.37 93 1015.2
20260906001049 74 198 0.0 0.0 0.00 0.00 0.37 93 1014.9
20260906000204 74 198 0.0 0.0 0.00 0.00 0.37 93 1014.9
20260905235744 74 198 0.0 0.0 0.00 0.00 0.37 93 1014.9
20260905235310 0 0.0 0.0 0.00 0.00 0.37 1014.9
20260905234839 83 204 0.0 0.0 0.00 0.00 0.37 76 1014.9
20260905234423 83 204 0.0 0.0 0.00 0.00 0.37 76 1014.9
20260905234008 83 204 0.0 0.0 0.00 0.00 0.37 76 1015.2
20260905233553 83 204 0.0 0.0 0.00 0.00 0.37 76 1014.9
20260905232654 83 204 0.0 0.0 0.00 0.00 0.37 76 1014.9
20260905232226 83 204 0.0 0.0 0.00 0.00 0.37 76 1014.9
20260905231756 83 204 0.0 0.0 0.00 0.00 0.37 76 1014.9
20260905230911 83 204 0.0 0.0 0.00 0.00 0.37 76 1014.9
20260905230441 83 204 0.0 0.0 0.00 0.00 0.37 76 1014.9
20260905230010 83 204 0.0 0.0 0.00 0.00 0.37 76 1014.9
20260905225055 83 204 0.0 0.0 0.00 0.00 0.37 76 1014.9
20260905224638 83 204 0.0 0.0 0.00 0.00 0.37 73 1014.9
20260905224220 83 204 0.9 0.9 0.00 0.00 0.37 72 1014.9
20260905223802 84 203 1.7 0.9 0.00 0.00 0.37 68 1014.9
20260905223333 85 227 3.5 2.6 0.00 0.00 0.37 64 1014.9
20260905222917 86 212 1.7 1.7 0.00 0.00 0.37 62 1014.9
20260905222503 86 208 0.9 0.9 0.00 0.00 0.37 61 1014.9
20260905222047 86 230 1.7 2.6 0.00 0.00 0.37 62 1014.9
20260905221632 87 227 1.7 1.7 0.00 0.00 0.37 60 1015.2
20260905220730 0 0.0 0.0 0.00 0.00 0.37 1014.9
20260905215838 0 0.0 0.0 0.00 0.00 0.37 1014.9
20260905214951 0 0.0 0.0 0.00 0.00 0.37 1014.9
20260905214521 0 0.0 0.0 0.00 0.00 0.37 1014.9
20260905214105 0 0.0 0.0 0.00 0.00 0.37 1014.9
20260905213636 0 0.0 0.0 0.00 0.00 0.37 1014.9
20260905212252 83 48 1.7 1.7 0.00 0.00 0.37 65 1014.5
20260905211407 83 48 1.7 1.7 0.00 0.00 0.37 65 1014.9
20260905210950 83 48 1.7 1.7 0.00 0.00 0.37 65 1014.5
20260905210536 83 48 1.7 1.7 0.00 0.00 0.37 65 1014.5
20260905210105 83 48 1.7 1.7 0.00 0.00 0.37 65 1014.5
20260905205617 83 48 1.7 1.7 0.00 0.00 0.37 65 1014.9
20260905204719 83 48 1.7 1.7 0.00 0.00 0.37 65 1014.9
20260905204301 83 48 1.7 1.7 0.00 0.00 0.37 65 1014.9
20260905203845 83 48 1.7 1.7 0.00 0.00 0.37 65 1014.9
20260905203430 83 48 1.7 1.7 0.00 0.00 0.37 65 1014.9
20260905203015 83 48 1.7 1.7 0.00 0.00 0.37 65 1014.9
20260905202601 83 48 1.7 1.7 0.00 0.00 0.37 65 1014.9
20260905202146 0 0.0 0.0 0.00 0.00 0.37 1015.2
20260905201732 0 0.0 0.0 0.00 0.00 0.37 1014.9
20260905201316 0 0.0 0.0 0.00 0.00 0.37 1015.2
20260905200846 0 0.0 0.0 0.00 0.00 0.37 1015.2
20260905200401 0 0.0 0.0 0.00 0.00 0.37 1015.2
20260905195946 0 0.0 0.0 0.00 0.00 0.37 1015.2
20260905195516 0 0.0 0.0 0.00 0.00 0.37 1015.2
20260905195100 0 0.0 0.0 0.00 0.00 0.37 1014.9
20260905194155 0 0.0 0.0 0.00 0.00 0.37 1015.5
20260905193708 0 0.0 0.0 0.00 0.00 0.37 1015.5
20260905193252 0 0.0 0.0 0.00 0.00 0.37 1015.5
20260905191933 0 0.0 0.0 0.00 0.00 0.37 1015.5
20260905191049 0 0.0 0.0 0.00 0.00 0.37 1015.5
20260905190617 0 0.0 0.0 0.00 0.00 0.37 1015.9
20260905185730 0 0.0 0.0 0.00 0.00 0.37 1015.9
20260905185314 0 0.0 0.0 0.00 0.00 0.37 1015.9
20260905184843 0 0.0 0.0 0.00 0.00 0.37 1016.2
20260905184429 0 0.0 0.0 0.00 0.00 0.37 1016.2
20260905183958 0 0.0 0.0 0.00 0.00 0.37 1016.2
20260905183527 0 0.0 0.0 0.00 0.00 0.37 1016.2
20260905183110 0 0.0 0.0 0.00 0.00 0.37 1016.2
20260905182652 84 91 0.9 0.9 0.00 0.00 0.37 63 1016.2
20260905182223 84 91 0.9 0.9 0.00 0.00 0.37 63 1016.2
20260905181805 84 91 0.9 0.9 0.00 0.00 0.37 63 1016.2
20260905180914 84 91 0.9 0.9 0.00 0.00 0.37 63 1015.9
20260905180012 84 91 0.9 0.9 0.00 0.00 0.37 63 1016.2
20260905175557 84 91 0.9 0.9 0.00 0.00 0.37 63 1016.2
20260905175143 84 91 0.9 0.9 0.00 0.00 0.37 63 1016.2
20260905174726 84 91 0.9 0.9 0.00 0.00 0.37 63 1016.2
20260905174257 84 91 0.9 0.9 0.00 0.00 0.37 63 1016.2
20260905173842 84 91 0.9 0.9 0.00 0.00 0.37 63 1016.2
20260905172955 84 91 0.9 0.9 0.00 0.00 0.37 63 1016.5
20260905172539 83 211 1.7 1.7 0.00 0.00 0.37 64 1016.5
20260905172109 83 211 1.7 1.7 0.00 0.00 0.37 64 1016.2
20260905171651 83 185 0.9 1.7 0.00 0.00 0.37 69 1016.5
20260905171238 82 247 1.7 2.6 0.00 0.00 0.37 72 1016.5
20260905170805 82 247 1.7 2.6 0.00 0.00 0.37 72 1016.5
20260905170335 82 247 1.7 2.6 0.00 0.00 0.37 72 1016.5
20260905165918 82 247 1.7 2.6 0.00 0.00 0.37 72 1016.5
20260905165501 82 247 1.7 2.6 0.00 0.00 0.37 72 1016.5
20260905165045 82 247 1.7 2.6 0.00 0.00 0.37 72 1016.9
20260905164629 82 247 1.7 2.6 0.00 0.00 0.37 72 1016.9
20260905164214 82 148 0.9 0.9 0.00 0.00 0.37 75 1017.2
20260905163742 82 148 0.9 0.9 0.00 0.00 0.37 75 1017.6
20260905163312 81 196 1.7 1.7 0.00 0.00 0.37 74 1017.6
20260905162840 80 84 2.6 2.6 0.00 0.00 0.37 70 1017.6
20260905161951 80 125 1.7 2.6 0.00 0.00 0.37 75 1017.2
20260905161536 80 125 1.7 2.6 0.00 0.00 0.37 75 1017.6
20260905160649 80 235 2.6 2.6 0.00 0.00 0.37 73 1017.6
20260905155332 78 82 0.9 1.7 0.00 0.00 0.37 80 1017.6
20260905154847 78 82 0.9 1.7 0.00 0.00 0.37 80 1017.6
20260905154417 78 82 0.9 1.7 0.00 0.00 0.37 80 1017.9
20260905153527 77 110 0.0 1.7 0.00 0.00 0.37 80 1017.6
20260905153111 76 164 0.9 1.7 0.00 0.00 0.37 85 1017.6
20260905152653 76 38 3.5 5.2 0.00 0.00 0.37 82 1017.6
20260905152236 75 38 2.6 5.2 0.00 0.00 0.37 84 1017.9
20260905151347 75 53 5.2 7.8 0.00 0.00 0.37 85 1017.6
20260905150931 74 55 4.3 6.1 0.00 0.00 0.37 86 1017.6
20260905150513 74 76 5.2 7.8 0.00 0.00 0.37 87 1017.6
20260905150058 74 71 3.5 6.1 0.00 0.00 0.37 90 1017.6
20260905145641 74 64 3.5 5.2 0.00 0.00 0.37 90 1017.6
20260905145225 74 22 5.2 6.1 0.00 0.00 0.37 90 1017.9
20260905144808 74 43 2.6 3.5 0.00 0.00 0.37 92 1018.2
20260905144352 74 60 2.6 6.1 0.00 0.00 0.37 91 1017.9
20260905143935 73 100 0.9 1.7 0.00 0.00 0.37 93 1018.2
20260905143504 73 347 2.6 3.5 0.00 0.00 0.37 93 1017.9
20260905143032 73 38 3.5 3.5 0.00 0.00 0.37 94 1017.9
20260905142615 73 357 1.7 6.1 0.00 0.00 0.37 94 1017.6
20260905142159 72 325 3.5 7.0 0.00 0.00 0.37 96 1017.2
20260905141740 72 139 0.9 0.9 0.00 0.00 0.37 98 1017.2
20260905141325 72 347 5.2 5.2 0.00 0.00 0.37 98 1016.5
20260905140838 71 173 1.7 2.6 0.00 0.00 0.37 98 1015.5
20260905140422 72 114 2.6 3.5 0.00 0.00 0.37 98 1014.5
20260905140005 72 318 0.9 3.5 0.00 0.00 0.37 99 1014.9
20260905135547 71 207 0.9 0.9 0.00 0.00 0.37 99 1015.9
20260905135130 71 207 0.0 0.0 0.00 0.00 0.37 99 1016.2
20260905134658 71 202 1.7 1.7 0.00 0.00 0.37 99 1016.5
20260905134242 71 202 0.9 1.7 0.00 0.00 0.37 99 1016.5
20260905132919 70 197 1.7 2.6 0.00 0.00 0.37 99 1016.2
20260905132448 71 204 1.7 1.7 0.00 0.00 0.37 99 1016.5
20260905132017 70 112 0.0 0.0 0.00 0.00 0.37 99 1016.5
20260905131546 70 112 0.0 0.9 0.00 0.00 0.36 99 1016.5
20260905131129 70 112 0.0 0.0 0.00 0.00 0.36 99 1016.5
20260905130713 70 111 0.0 0.9 0.00 0.00 0.36 99 1016.9
20260905125822 70 110 0.0 0.0 0.00 0.00 0.35 98 1016.9
20260905125404 70 109 1.7 1.7 0.00 0.00 0.34 98 1017.2
20260905124933 70 117 0.9 0.9 0.00 0.00 0.33 98 1017.2